2023-041D (55984 NORAD) Tracking and Keplerian Element Data

This shows tracking and keplerian element data for the satellite.

Feedback or suggestion? Click here.




ElementValue
Catalog55984
Name2023-041D
Epoch Orbit23
Epoch Day84.86622038
Epoch Year2023
RAAN245.7056
Inclination41.9714
Eccentricity0.0148877
Argument of Perigee25.6334
Mean Anonmoly335.1794
Mean Motion15.77654435
Decay Rate0.01042576
L11 55984U 23041D 23084.86622038 .01042576 39748-3 27620-2 0 9991
L22 55984 41.9714 245.7056 0148877 25.6334 335.1794 15.77654435 230



Live tracking and technical data element details for 2023-041D (NORAD 55984). 2023-041D can be tracked NOW for your location showing map with azimuth and elevation plus other details from your city location.







IsCatalogInMostPopularTable: catalog: 55984, numindb: 11
Update: records affected: 1



GetName: 55984 2023-041D

Hit Count: updated at: Tue, 06 Jun 2023 03:52:10 GMT